OH6HPS Weather Reports


time (UTC)temp
C
wind
direction
speed
KPH
gust
KPH
rain 1hr
cm
rain 24hr
cm
rain mn
cm
humidity
%
barometer
mb
20260503225632 6 3 1.6 1.6 0.00 0.00 0.00 64 1007.3
20260503224632 6 72 0.0 1.6 0.00 0.00 0.00 63 1007.3
20260503223631 7 72 0.0 0.0 0.00 0.00 0.00 62 1007.3
20260503222631 7 72 0.0 1.6 0.00 0.00 0.00 60 1007.3
20260503221633 7 72 0.0 3.2 0.00 0.00 0.00 57 1007.4
20260503220633 8 51 3.2 8.0 0.00 0.00 0.00 56 1007.5
20260503215630 8 195 0.0 3.2 0.00 0.00 0.00 56 1007.7
20260503214629 8 195 0.0 6.4 0.00 0.00 0.00 55 1007.6
20260503213628 8 282 0.0 6.4 0.00 0.00 0.00 53 1007.6
20260503212630 9 257 0.0 4.8 0.00 0.00 0.00 53 1007.7
20260503211629 9 281 1.6 6.4 0.00 0.00 0.00 52 1007.7
20260503210629 9 281 0.0 6.4 0.00 0.00 0.00 51 1007.6
20260503205628 10 148 1.6 4.8 0.00 0.00 0.00 52 1007.6
20260503204630 10 274 0.0 6.4 0.00 0.00 0.00 53 1007.5
20260503203628 10 286 0.0 3.2 0.00 0.00 0.00 54 1007.4
20260503202628 10 59 0.0 3.2 0.00 0.00 0.00 56 1007.3
20260503201628 10 59 1.6 4.8 0.00 0.00 0.00 55 1007.4
20260503200627 10 85 0.0 6.4 0.00 0.00 0.00 55 1007.4
20260503195627 10 272 0.0 4.8 0.00 0.00 0.00 56 1007.4
20260503194627 11 234 1.6 3.2 0.00 0.00 0.00 55 1007.5
20260503193625 11 283 0.0 4.8 0.00 0.00 0.00 56 1007.5
20260503192626 11 228 1.6 6.4 0.00 0.00 0.00 54 1007.4
20260503191626 11 66 0.0 4.8 0.00 0.00 0.00 53 1007.6
20260503190626 12 251 1.6 4.8 0.00 0.00 0.00 53 1007.4
20260503185625 12 279 1.6 6.4 0.00 0.00 0.00 53 1007.4
20260503184626 12 255 1.6 3.2 0.00 0.00 0.00 52 1007.4
20260503183626 12 266 1.6 6.4 0.00 0.00 0.00 52 1007.4
20260503182625 12 259 0.0 6.4 0.00 0.00 0.00 51 1007.4
20260503181625 13 261 0.0 3.2 0.00 0.00 0.00 55 1007.2
20260503180626 13 261 0.0 3.2 0.00 0.00 0.00 51 1007.2
20260503175624 13 261 0.0 3.2 0.00 0.00 0.00 50 1007.2
20260503174624 13 286 0.0 3.2 0.00 0.00 0.00 51 1007.1
20260503173625 13 288 0.0 4.8 0.00 0.00 0.00 51 1007.2
20260503172624 13 251 3.2 6.4 0.00 0.00 0.00 51 1007.1
20260503171623 14 252 1.6 4.8 0.00 0.00 0.00 51 1007.1
20260503171112 14 264 0.0 6.4 0.00 0.00 0.00 51 1007.0
20260503150621 15 272 4.8 9.7 0.00 0.00 0.00 55 1007.4
20260503130617 16 233 6.4 11.3 0.00 0.00 0.00 52 1007.6
20260503110614 16 0 8.0 24.1 0.00 0.00 0.00 57 1007.8
20260503080916 13 285 6.4 16.1 0.00 0.00 0.00 71 1007.5
20260503080425 13 264 3.2 11.3 0.00 0.00 0.00 74 1007.4
20260503080301 12 214 3.2 14.5 0.00 0.00 0.00 77 1007.3
20260503080206 12 209 4.8 9.7 0.00 0.00 0.00 76 1007.2
20260503072916 11 195 3.2 16.1 0.00 0.00 0.00 79 1007.1
20260503071916 11 283 6.4 11.3 0.00 0.00 0.00 78 1007.0
20260503070915 11 228 4.8 11.3 0.00 0.00 0.00 81 1007.0
20260503054913 8 214 4.8 8.0 0.00 0.00 0.00 85 1006.5
20260503053913 8 61 3.2 3.2 0.00 0.00 0.00 86 1006.5
20260503052914 8 65 0.0 0.0 0.00 0.00 0.00 84 1006.3
20260503051913 8 65 0.0 1.6 0.00 0.00 0.00 83 1006.1
20260503050913 8 65 0.0 3.2 0.00 0.00 0.00 84 1006.1
20260503045912 7 65 0.0 1.6 0.00 0.00 0.00 84 1006.0
20260503044912 7 65 0.0 3.2 0.00 0.00 0.00 86 1006.0
20260503043911 7 65 1.6 3.2 0.00 0.00 0.00 87 1005.9
20260503042911 6 65 0.0 3.2 0.00 0.00 0.00 87 1006.0
20260503041912 6 65 0.0 3.2 0.00 0.00 0.00 88 1006.1
20260503040918 6 281 0.0 1.6 0.00 0.00 0.00 89 1005.8
20260503035911 5 281 1.6 3.2 0.00 0.00 0.00 90 1005.7
20260503034911 5 281 0.0 1.6 0.00 0.00 0.00 90 1005.5
20260503033910 5 281 0.0 0.0 0.00 0.00 0.00 90 1005.3
20260503033123 4 281 0.0 0.0 0.00 0.00 0.00 88 1005.0
20260503033041 4 278 0.0 0.0 0.00 0.00 0.00 88 1005.3
20260503032910 5 281 0.0 0.0 0.00 0.00 0.00 91 1005.2
20260503032851 4 281 0.0 1.6 0.00 0.00 0.00 90 1005.2
20260503032816 4 281 0.0 3.2 0.00 0.00 0.00 90 1005.0
20260503022908 4 278 0.0 1.6 0.00 0.00 0.00 88 1005.2
20260503021909 4 278 0.0 3.2 0.00 0.00 0.00 88 1005.2
20260503020908 4 195 1.6 3.2 0.00 0.00 0.00 88 1005.2
20260503015909 4 259 0.0 0.0 0.00 0.00 0.00 88 1005.0
20260503014908 4 259 0.0 0.0 0.00 0.00 0.00 88 1004.9
20260503013908 4 259 0.0 0.0 0.00 0.00 0.00 87 1004.9
20260503012907 4 259 0.0 3.2 0.00 0.00 0.00 88 1005.0
20260503011906 4 259 0.0 1.6 0.00 0.00 0.00 86 1004.8
20260503010906 5 259 0.0 0.0 0.00 0.00 0.00 86 1004.9
20260503005906 5 259 0.0 0.0 0.00 0.00 0.00 85 1005.2
20260503004909 5 259 0.0 0.0 0.00 0.00 0.00 84 1005.2
20260503003906 5 259 0.0 4.8 0.00 0.00 0.00 85 1005.2
20260503002905 5 259 1.6 4.8 0.00 0.00 0.00 84 1005.1
20260503001905 6 192 1.6 3.2 0.00 0.00 0.00 84 1004.9
20260503000905 6 192 0.0 3.2 0.00 0.00 0.00 84 1004.9
20260502235905 6 192 0.0 3.2 0.00 0.00 0.00 84 1004.8
20260502234905 6 192 1.6 3.2 0.00 0.00 0.00 84 1004.8
20260502233905 6 192 0.0 0.0 0.00 0.00 0.00 83 1005.0
20260502232905 6 192 0.0 0.0 0.00 0.00 0.00 83 1005.2
20260502231904 6 192 0.0 0.0 0.00 0.00 0.00 82 1005.1
20260502230906 6 192 0.0 1.6 0.00 0.00 0.00 81 1005.1
20260502225904 7 192 0.0 1.6 0.00 0.00 0.00 80 1005.3